SCP
0 0 0 0 0 0 0 0 0 0 0 0 0 0 0 0 0 0 0 0 0 0 0 0 0 0 0 0 0 0 0 0 0 0 0 0 0 0 0 0 0 0 0
0 0 0 0 0 0 0 0 0 0 0 0 0 0 0 0 0 0 0 0 0 0 0 0 0 0 0 0 0 0 0 0 0 0 0 0 0 0 0 0 0 0 0
0 0 0 0 0 0 0 0 0 0 0 0 0 0 0 0 0 0 0 0 0 0 0 0 0 0 0 0 0 0 0 0 0 0 0 0 0 0 0 0 0 0 0
0 0 0 0 0 0 0 0 0 0 0 0 0 0 0 0 0 0 0 0 0 0 0 0 0 0 0 0 0 0 0 0 0 0 0 0 0 0 0 0 0 0 0
0 0 0 0 0 0 0 0 0 0 0 0 0 0 0 0 0 0 0 0 0 0 0 0 0 0 0 0 0 0 0 0 0 0 0 0 0 0 0 0 0 0 0
0 0 0 0 0 0 0 0 0 0 0 0 0 0 0 0 0 0 0 0 0 0 0 0 0 0 0 0 0 0 0 0 0 0 0 0 0 0 0 0 0 0 0
0 0 0 0 0 0 0 0 0 0 0 0 0 0 0 0 0 0 0 0 0 0 0 0 0 0 0 0 0 0 0 0 0 0 0 0 0 0 0 0 0 0 0
0 0 0 0 0 0 0 0 0 0 0 0 0 0 0 0 0 0 0 0 0 0 0 0 0 0 0 0 0 0 0 0 0 0 0 0 0 0 0 0 0 0 0
0 0 0 0 0 0 0 0 0 0 0 0 0 0 0 0 0 0 0 0 0 0 0 0 0 0 0 0 0 0 0 0 0 0 0 0 0 0 0 0 0 0 0
0 0 0 0 0 0 0 0 0 0 0 0 0 0 0 0 0 0 0 0 0 0 0 0 0 0 0 0 0 0 0 0 0 0 0 0 0 0 0 0 0 0 0
0 0 0 0 0 0 0 0 0 0 0 0 0 0 0 0 0 0 0 0 0 0 0 0 0 0 0 0 0 0 0 0 0 0 0 0 0 0 0 0 0 0 0
0 0 0 0 0 0 0 0 0 0 0 0 0 0 0 0 0 0 0 0 0 0 0 0 0 0 0 0 0 0 0 0 0 0 0 0 0 0 0 0 0 0 0
0 0 0 0 0 0 0 0 0 0 0 0 0 0 0 0 0 0 0 0 0 0 0 0 0 0 0 0 0 0 0 0 0 0 0 0 0 0 0 0 0 0 0
0 0 0 0 0 0 0 0 0 0 0 0 0 0 0 0 0 0 0 0 0 0 -0 0 0 0 0 0 0 0 0 0 0 0 0 0 0 0 0 0 0 0 0
0 0 0 0 0 0 0 0 0 0 0 0 0 0 0 0 0 0 0 0 0 -0 -0 -0 0 0 0 0 0 0 0 0 0 0 0 0 0 0 0 0 0 0 0
0 0 0 0 0 0 0 0 0 0 0 0 0 0 0 0 0 0 0 0 0 0 0 0 0 0 0 0 0 0 0 0 0 0 0 0 0 0 0 0 0 0 0
0 0 0 0 0 0 0 0 0 0 0 0 0 0 0 0 0 0 0 0 0 0 0 -0 0 0 0 0 0 0 0 0 0 0 0 0 0 0 0 0 0 0 0
0 0 0 0 0 0 0 0 0 0 0 0 0 0 0 0 0 0 0 -0 -0 0 0 -0 -0 0 0 0 0 0 0 0 0 0 0 0 0 0 0 0 0 0 0
0 0 0 0 0 0 0 0 0 0 0 0 0 0 0 0 0 0 0 -0 -0 0 0 -0 -0 -0 0 0 0 0 0 0 0 0 0 0 0 0 0 0 0 0 0
0 0 0 0 0 0 0 0 0 0 0 0 0 0 0 0 0 0 0 0 -0 0 0 0 0 0 0 0 0 0 0 0 0 0 0 0 0 0 0 0 0 0 0
0 0 0 0 0 0 0 0 0 0 0 0 0 0 0 0 0 0 0 0 0 -0 -0 0 0 0 0 0 0 0 0 0 0 0 0 0 0 0 0 0 0 0 0
0 0 0 0 0 0 0 0 0 0 0 0 0 0 0 0 0 0 0 0 0 0 0 0 0 0 0 0 0 0 0 0 0 0 0 0 0 0 0 0 0 0 0
0 0 0 0 0 0 0 0 0 0 0 0 0 0 0 0 0 0 0 0 0 0 0 0 0 0 0 0 0 0 0 0 0 0 0 0 0 0 0 0 0 0 0
0 0 0 0 0 0 0 0 0 0 0 0 0 0 0 0 0 0 0 0 0 0 0 0 0 0 0 0 0 0 0 0 0 0 0 0 0 0 0 0 0 0 0
0 0 0 0 0 0 0 0 0 0 0 0 0 0 0 0 0 0 0 0 0 0 0 0 0 0 0 0 0 0 0 0 0 0 0 0 0 0 0 0 0 0 0
0 0 0 0 0 0 0 0 0 0 0 0 0 0 0 0 0 0 0 0 0 0 0 0 0 0 0 0 0 0 0 0 0 0 0 0 0 0 0 0 0 0 0
Wind_Speed
4 3 2 2 1 2 2 2 1 1 1 1 1 3 3 2 2 1 1 2 2 2 2 2 2 2 2 2 3 4 4 4 5 6 6 7 8 8 9 9 10 10 11
3 3 3 3 2 2 2 2 2 2 1 1 1 2 2 2 2 2 1 1 2 2 2 2 1 1 1 2 2 3 4 5 5 6 7 7 8 8 9 10 10 11 11
4 4 3 3 2 2 2 2 2 1 1 1 1 1 2 2 2 2 2 1 1 1 2 1 1 0 1 2 2 3 4 5 5 6 7 8 8 9 9 10 11 11 12
4 4 4 3 3 2 2 3 2 2 1 1 1 1 1 2 2 2 2 1 1 1 1 1 1 1 2 3 3 4 5 5 6 6 7 8 9 9 10 10 11 12 13
3 3 4 3 3 2 2 3 2 2 2 1 1 1 1 2 2 2 2 2 2 2 1 1 0 1 3 3 4 5 5 6 6 7 7 8 9 9 10 11 12 12 13
2 2 3 3 3 2 2 3 3 2 2 2 1 0 1 1 1 2 3 2 2 2 2 1 0 1 3 4 5 6 6 6 6 7 8 9 9 10 11 11 12 13 14
2 2 2 3 3 3 3 4 3 3 1 2 2 1 2 1 1 2 2 2 2 2 2 2 1 1 1 4 5 6 6 6 7 7 8 9 9 10 11 12 12 13 14
1 2 2 2 4 3 3 4 4 3 1 2 3 2 0 2 1 1 1 2 2 2 2 2 2 1 1 1 3 6 6 6 7 8 8 9 10 11 12 12 13 14 14
1 1 2 2 3 4 4 5 5 5 3 2 2 3 3 3 1 2 1 1 1 1 1 1 2 1 1 1 2 4 6 7 7 8 9 9 10 11 12 12 13 14 15
1 1 1 2 2 2 3 4 4 3 5 3 1 0 1 2 2 1 2 1 1 1 1 1 1 1 0 1 2 5 6 7 8 8 9 10 11 12 12 13 14 15 15
0 1 1 1 1 1 2 3 3 3 3 3 3 2 1 0 1 2 2 2 2 1 1 1 1 1 1 1 2 4 6 7 8 9 9 10 11 12 13 13 14 15 16
0 0 0 0 1 1 2 2 3 4 3 3 2 2 2 2 2 2 3 2 2 2 1 1 0 0 1 1 3 6 6 7 8 8 9 10 11 12 12 14 14 15 16
0 1 0 0 1 1 1 2 2 3 3 3 2 2 1 1 1 1 2 1 1 2 1 1 1 0 1 2 3 6 6 7 8 8 9 9 10 11 12 14 15 16 17
1 0 0 0 0 1 1 2 2 1 2 2 2 2 1 1 1 2 2 2 1 2 1 2 1 1 2 2 4 6 4 7 7 8 8 9 10 11 12 13 15 16 16
0 0 0 0 0 1 1 2 1 2 2 1 2 1 1 0 1 1 1 2 2 2 3 2 2 2 2 2 5 3 3 6 7 8 8 9 10 11 12 13 14 15 16
1 1 1 1 1 1 1 2 1 2 2 1 1 2 1 0 1 0 0 0 1 2 3 2 2 2 2 3 5 3 3 7 8 9 9 10 10 11 12 13 14 15 15
1 1 1 1 1 1 1 2 2 2 3 1 1 1 1 1 1 0 0 0 1 1 2 3 2 2 2 3 4 3 3 3 4 9 9 10 10 11 12 13 14 15 15
0 1 1 1 1 1 1 2 2 2 2 2 1 1 1 1 1 0 0 0 1 1 2 3 2 2 3 3 3 4 4 3 3 8 10 10 10 11 12 13 13 14 15
1 1 1 2 1 1 1 2 2 2 2 2 2 2 1 1 1 1 1 1 1 0 1 2 2 2 2 2 3 4 4 3 4 6 8 9 10 11 12 13 13 14 14
2 1 1 1 1 1 1 2 2 2 2 1 1 1 2 2 2 2 1 1 1 0 0 1 2 2 2 2 2 3 4 4 4 4 6 7 9 11 12 13 13 13 14
1 2 1 1 1 1 1 2 3 2 2 1 0 0 1 2 2 1 1 1 1 1 1 1 1 1 2 2 2 2 4 5 4 3 4 5 5 4 6 9 11 13 14
2 2 2 1 1 1 1 3 2 2 2 1 0 0 0 0 0 1 1 1 1 1 1 1 1 2 2 2 2 3 3 4 4 3 4 5 3 4 5 4 10 13 14
2 2 1 1 1 1 2 3 3 2 1 1 1 0 1 1 1 1 1 2 2 1 0 1 2 2 2 2 2 2 3 3 4 4 4 4 3 4 5 6 12 12 14
1 1 1 1 1 1 3 3 4 3 2 1 1 0 0 1 0 1 1 1 1 1 1 1 1 2 2 2 2 2 3 3 3 2 2 3 4 4 6 5 9 12 14
1 1 1 1 1 1 2 3 3 2 2 2 1 0 0 0 0 2 2 1 1 2 3 3 3 3 4 5 3 2 2 3 3 2 1 2 3 5 5 4 6 11 14
1 1 1 1 1 1 2 3 3 2 2 1 1 1 1 0 1 2 1 0 0 1 2 2 3 4 3 4 5 2 1 2 2 3 2 3 3 4 5 4 4 5 7
Wind_Direction
168 161 156 159 166 165 155 155 157 148 132 133 147 150 150 151 156 167 174 146 153 153 144 130 105 80 67 55 36 16 1 348 344 339 337 334 331 328 327 328 328 325 324
166 161 162 165 177 183 169 163 167 161 156 148 142 151 156 161 161 157 168 163 151 151 147 136 108 71 44 41 24 4 349 339 336 334 332 328 327 328 326 325 325 325 324
165 161 163 166 186 179 165 150 143 133 137 132 138 158 158 167 165 170 172 175 174 151 149 158 131 45 2 353 348 342 337 336 336 332 328 327 328 328 325 326 326 326 325
164 167 165 174 180 166 164 156 150 139 149 154 165 187 175 169 173 176 172 170 164 166 179 184 213 292 320 322 325 329 329 331 330 325 327 329 328 328 327 327 326 325 323
163 171 174 178 173 161 167 168 155 157 163 173 187 188 196 190 185 174 174 178 181 176 180 193 202 321 320 316 319 320 320 322 322 323 326 327 328 329 328 328 326 324 322
164 163 176 172 163 157 173 165 157 158 167 172 160 152 251 227 196 185 190 182 187 189 185 187 202 307 320 323 317 314 313 314 319 325 325 326 327 326 326 325 323 322 320
159 157 174 171 166 170 185 170 155 152 145 133 108 29 333 286 211 203 192 181 193 201 198 196 195 210 288 312 315 314 310 314 321 324 324 326 326 324 324 323 323 322 319
164 142 171 177 177 171 176 168 154 153 156 147 142 138 323 326 312 250 210 197 204 204 210 202 186 197 248 277 309 317 315 315 317 318 320 323 323 322 322 322 323 322 319
162 151 177 177 180 180 182 179 173 166 172 184 162 155 162 213 286 309 263 227 214 216 219 200 185 203 250 280 285 307 318 316 315 316 319 322 322 322 322 323 324 322 323
162 156 172 174 171 171 179 189 182 177 166 177 178 175 177 165 171 276 312 316 284 247 245 217 201 213 255 286 296 310 321 320 316 317 319 320 321 321 322 323 323 323 323
177 140 164 159 154 161 172 187 178 173 176 178 176 164 145 139 181 189 251 304 327 292 257 233 217 233 286 294 285 306 325 320 317 317 319 320 320 321 322 322 322 323 323
318 5 41 162 181 161 169 180 189 181 183 178 178 176 172 176 185 194 216 238 267 294 299 282 237 268 311 307 299 322 322 318 316 320 323 322 322 321 321 321 322 321 322
264 265 319 196 207 173 175 168 163 188 180 174 180 189 188 207 188 187 194 222 261 289 303 304 276 287 324 308 295 321 311 314 316 324 327 327 326 325 324 323 323 322 322
246 222 315 247 230 156 165 162 158 158 166 163 162 165 164 202 203 194 189 186 247 290 280 273 292 290 313 301 306 322 303 312 318 323 326 326 326 324 324 325 324 323 323
68 92 93 23 357 131 151 142 151 131 120 130 150 147 150 179 163 201 194 193 197 236 262 269 278 288 308 299 312 305 300 311 321 322 324 325 326 325 325 324 324 324 324
70 81 112 90 52 74 107 116 121 117 112 115 134 133 134 140 107 119 178 239 224 211 246 255 254 278 297 314 322 317 299 324 323 323 323 325 327 327 324 325 326 325 324
103 122 152 137 131 114 111 120 116 120 128 133 144 143 146 138 147 141 87 67 261 215 242 273 275 291 287 304 317 314 307 306 312 323 323 324 326 326 326 328 326 325 325
95 112 139 129 117 100 115 125 132 123 140 147 152 148 159 137 139 142 138 152 263 237 224 261 281 290 285 293 306 312 323 324 312 319 325 325 325 327 328 329 329 328 328
108 106 122 126 127 115 129 129 134 136 138 149 161 166 183 163 168 174 184 211 229 322 253 244 269 282 287 305 319 318 323 316 318 319 323 323 324 327 328 329 331 332 330
101 107 119 128 129 126 130 133 126 121 122 128 162 163 180 184 196 199 197 204 192 196 277 267 275 288 296 310 320 327 330 330 321 322 326 325 323 325 328 330 334 335 335
79 99 94 94 99 109 115 123 120 118 113 107 88 128 197 186 201 206 192 191 182 193 227 282 294 307 316 330 326 317 316 320 313 327 327 319 321 318 323 329 334 337 338
66 84 90 102 100 78 94 107 107 119 119 120 106 15 9 134 138 102 85 179 183 190 217 244 271 285 295 299 307 319 323 331 321 331 328 313 319 314 315 318 331 337 340
69 69 69 79 86 97 95 105 102 98 119 113 112 72 354 7 45 61 43 35 19 19 68 212 246 264 277 282 296 308 309 306 290 306 324 305 314 313 315 322 331 338 343
75 74 69 64 70 88 69 82 96 83 88 84 102 143 124 318 59 89 66 31 11 5 347 310 253 276 286 282 274 285 289 304 291 294 326 301 312 311 317 316 329 339 344
53 53 56 57 61 64 62 75 88 104 94 71 49 81 108 291 52 49 63 49 8 350 14 15 2 358 354 357 1 357 340 336 319 314 344 320 312 315 311 310 327 338 340
61 58 42 43 63 68 67 67 72 106 105 78 40 20 12 26 9 25 55 39 325 341 6 5 7 7 3 358 9 9 327 324 321 312 335 337 318 332 320 310 319 330 336